Weather History for KJDN - July, 2013

Change the Weather History Date:

Tuesday, July 16, 2013

  Actual Average Record
Temperature  
Mean Temperature 67 °F 70 °F  
Max Temperature 79 °F 86 °F 108 °F (1966)
Min Temperature 55 °F 55 °F 41 °F (1999)
Degree Days  
Heating Degree Days 0 1  
Month to date heating degree days 1 17  
Since 1 June heating degree days 96 142  
Since 1 July heating degree days 1 17  
Cooling Degree Days 2 6  
Month to date cooling degree days 121 77  
Year to date cooling degree days 181 131  
Since 1 June cooling degree days 169 125  
Growing Degree Days 16 (Base 50)    
Moisture  
Dew Point 50 °F    
Average Humidity 54    
Maximum Humidity 72    
Minimum Humidity 35    
Precipitation  
Precipitation 0.00 in 0.06 in 1.17 in (1918)
Month to date precipitation 0.91 1.22  
Year to date precipitation 11.93 8.08  
Snow  
Snow 0.00 in - - ()
Month to date snowfall 0.0  
Since 1 June snowfall 0.0  
Since 1 July snowfall 0.0  
Snow Depth 0.00 in    
Sea Level Pressure  
Sea Level Pressure 30.16 in    
Wind  
Wind Speed 12 mph (NNE)    
Max Wind Speed 25 mph    
Max Gust Speed 33 mph    
T = Trace of Precipitation, MM = Missing Value Source: NWS Daily Summary

Daily Weather History Graph

Daily Weather History Graph

Search for Another Location

Airport or City:

Trip Planner

Search our weather history database for the weather conditions in past years. The results will help you decide how hot, cold, wet, or windy it might be!

Date:

Astronomy

Jul. 16, 2013 Rise Set
Actual Time 5:28 AM MDT 8:59 PM MDT
Civil Twilight 4:49 AM MDT 9:37 PM MDT
Nautical Twilight 3:58 AM MDT 10:27 PM MDT
Astronomical Twilight 2:50 AM MDT 11:35 PM MDT
Moon 2:34 PM MDT (7/16) 12:11 AM MDT (7/16)
Length of Visible Light 16h 47m
Length of Day
15h 31m
First Quarter, 57% of the Moon is Illuminated
Jul 16
First Quarter
Jul 22
Full
Jul 29
Last Quarter
Aug 6
New
Aug 14
First Quarter

Hourly Weather History & Observations

Time (MDT) Temp. Dew Point Humidity Pressure Visibility Wind Dir Wind Speed Gust Speed Precip Events Conditions
12:48 AM 71.1 °F 54.0 °F 55% 29.96 in - North 21.9 mph 26.5 mph N/A   Unknown
1:48 AM 66.9 °F 55.9 °F 68% 30.00 in - North 13.8 mph 19.6 mph N/A   Unknown
2:48 AM 64.0 °F 50.0 °F 60% 30.02 in - North 20.7 mph 28.8 mph N/A   Unknown
3:48 AM 60.1 °F 48.0 °F 64% 30.06 in - NNW 11.5 mph 23.0 mph N/A   Unknown
4:48 AM 57.0 °F 46.0 °F 67% 30.09 in - NNW 12.7 mph - N/A   Unknown
5:48 AM 55.0 °F 46.0 °F 72% 30.14 in - NNW 12.7 mph - N/A   Unknown
6:48 AM 55.9 °F 46.9 °F 72% 30.18 in - North 11.5 mph - N/A   Unknown
7:48 AM 57.9 °F 46.9 °F 67% 30.19 in - North 15.0 mph - N/A   Unknown
8:48 AM 60.1 °F 48.0 °F 64% 30.21 in - North 11.5 mph - N/A   Unknown
9:48 AM 62.1 °F 48.0 °F 60% 30.22 in - North 11.5 mph 20.7 mph N/A   Unknown
10:48 AM 64.9 °F 50.0 °F 58% 30.22 in - North 13.8 mph - N/A   Unknown
11:48 AM 66.9 °F 50.0 °F 54% 30.21 in - NNE 11.5 mph 17.3 mph N/A   Unknown
12:48 PM 70.0 °F 51.1 °F 51% 30.20 in - NNE 11.5 mph - N/A   Unknown
1:48 PM 72.0 °F 50.0 °F 46% 30.19 in - NNE 9.2 mph 16.1 mph N/A   Unknown
2:48 PM 75.0 °F 50.0 °F 41% 30.19 in - NE 12.7 mph 18.4 mph N/A   Unknown
4:48 PM 78.1 °F 48.9 °F 36% 30.20 in - NNE 10.4 mph - N/A   Unknown
5:48 PM 75.9 °F 48.0 °F 37% 30.19 in - Variable 6.9 mph - N/A   Unknown
6:48 PM 75.9 °F 48.9 °F 38% 30.19 in - ESE 11.5 mph - N/A   Unknown
7:48 PM 75.0 °F 51.1 °F 43% 30.17 in - East 13.8 mph - N/A   Unknown
8:48 PM 72.0 °F 52.0 °F 49% 30.19 in - East 12.7 mph - N/A   Unknown
9:48 PM 69.1 °F 52.0 °F 54% 30.19 in - East 10.4 mph - N/A   Unknown
10:48 PM 68.0 °F 50.0 °F 52% 30.21 in - East 8.1 mph - N/A   Unknown
11:48 PM 66.0 °F 48.9 °F 54% 30.20 in - East 6.9 mph - N/A   Unknown